STARLINK-1493, 45759

Orbit data source: Space-Track

STARLINK-1493, 45759 is a payload satellite owned by SpaceX/Seattle (US) in LEO that was launched on Sat, 13 Jun 2020 UTC via an FALCON 9 launch vehicle from the Air Force Eastern Test Range (AFETR). Payload-class satellites include a variety of spacecraft equipped with specific instruments for various scientific and technological missions. These include communications satellites like Starlink; space stations such as the ISS; scientific satellites like the Hubble; Earth observation satellites from companies like Planet Labs, Umbra, and HawkEye 360; GPS; miniature CubeSats for education and research; and military/defense satellites.

Loading next visibility...
Identifier
45759, 2020-038AF
Orbit
LEO
Country
Flag of USUS
Related business
Manufacturer
SpaceX/Seattle
Mission
Partially operational Commercial Communications
Bus & Motor
STARLINK, Unknown motor
Mass
260 kg wet, ~248 kg dry
Launch date (UTC)
2020-06-13 (6 years ago)
Launch vehicle
FALCON 9
Launch site
Air Force Eastern Test Range (AFETR)
Object type
Payload
Rocket body
Debris
Shape & HBR
Box + 1 Pan, 10.1 m
Radar Cross Section
13.562 m², Large (>1 m²)

Expand to show TLE details & history
Last TLE update: 6 hours ago

TLE from 6 hours ago
0 STARLINK-1493
1 45759U 20038AF  26177.92855047  .00056467  00000-0  52269-3 0  9991
2 45759  53.0463  32.9853 0005434  87.7804 272.3833 15.66974055333682
Epoch: 2026-06-26T22:17Z
TLE epoch observation values (Epoch: 2026-06-26T22:17:06.760Z)
Latitude
-0.00006°
Longitude
143.65707°
Altitude
368.319 km
Speed
7.69 km/s
True Right ascension
02h 11m 56s
True Declination
0° 00' 00"
Sunlit
Object was in daylight at epoch
Visualization orbit readout
Latitude
Unknown
Longitude
Unknown
Altitude
Unknown
Speed
Unknown
Apparent Right ascension
Unknown
Apparent Declination
Unknown
Sunlit
N/A
Visualization observer readout
Local Sidereal Time
16:02:41
Azimuth
Unknown
Elevation
Unknown
Doppler factor
Unknown
Orbital elements
Apogee altitude
371.512 km
Perigee altitude
364.181 km
Semi-major axis
6,745.983 km
Eccentricity
0.00054
Inclination
53.0463°
RAAN
32.9853°
Arg. of periapsis
87.7804°
True anomaly
272.32108°
Mean anomaly
272.3833°
Eccentric anomaly
272.35219°
Mean motion
3.9172 °/min
Orbital period
91.9 mins
BSTAR
0.00052269
Loading maneuver chart data...
Computing Atmospheric mass density...

Documentation

Showing up to 5 results
|